Hourly Data Report for April 15, 2021

OTTAWA INTL A
ONTARIO
Current Station Operator: NAVCAN

45°19'00.000" N
75°40'00.000" W
114.90 m
6106001
71628
YOW

Download Data

Hourly Data (April 2021)
Hourly Data Report for April 15, 2021
TIME
LST
Temp Definition
°C
Dew Point Definition
°C
Rel Hum Definition
%
Precip. Amount Definition
mm

Wind Dir Definition
10's deg

Wind Spd Definition
km/h
Visibility Definition
km
Stn Press Definition
kPa
Hmdx Definition


Wind Chill Definition


Weather Definition


00:00 9.2 4.9 74   17 5 24.1 99.59     LegendNANA
01:00 9.5 5.2 74   20 11 24.1 99.58     Cloudy
02:00 10.5 3.3 61   25 17 24.1 99.57     Rain
03:00 9.0 4.5 73   28 18 24.1 99.50     Rain
04:00 8.4 4.6 77   36 2 24.1 99.47     Rain
05:00 8.2 5.4 83   6 18 24.1 99.39     LegendNANA
06:00 8.2 5.2 81   7 16 24.1 99.36     LegendNANA
07:00 8.4 5.9 84   5 9 24.1 99.37     Cloudy
08:00 9.2 6.2 81   7 5 24.1 99.34     LegendNANA
09:00 9.0 6.7 86   15 9 24.1 99.36     Rain
10:00 8.7 7.4 92   9 11 24.1 99.34     Rain
11:00 9.0 7.7 91   9 10 24.1 99.30     Rain
12:00 9.2 7.2 87   9 13 24.1 99.23     Rain
13:00 9.3 6.8 84   6 16 24.1 99.17     Rain
14:00 9.2 6.7 84   11 12 24.1 99.14     Rain
15:00 9.2 7.0 86   11 4 16.1 99.12     Rain
16:00 8.9 7.5 91   19 6 16.1 99.08     Rain
17:00 8.2 7.0 92   19 7 9.7 99.10     Rain,Fog
18:00 8.2 7.5 96   21 9 8.1 99.10     Rain,Fog
19:00 7.5 6.9 96   23 7 9.7 99.11     Rain,Fog
20:00 7.1 6.5 96   22 12 16.1 99.13     LegendNANA
21:00 6.6 6.0 96   22 9 16.1 99.09     Rain
22:00 6.3 5.5 95   23 9 16.1 99.05     Rain
23:00 6.3 5.8 97   16 6 16.1 99.04     Rain

Notes on Data Quality.

Legend

  • E = Estimated
  • M = Missing
  • NA = Not Available*
  • [empty] = Indicates an unobserved value
Date modified: